Regional Weather Roundup
Issued by NWS Goodland, KS

Home | Current Version | Previous Version | Text Only | Print | Product List | Glossary Off
Versions: 1 2 3 4 5 6 7 8 9 10 11 12 13 14 15 16 17 18 19 20 21 22 23 24 25 26 27 28 29 30 31 32 33 34 35 36 37 38 39 40 41 42 43 44 45 46 47 48 49 50

000
ASUS43 KGLD 191308
RWRGLD

GOODLAND FORECAST AREA HOURLY WEATHER ROUNDUP
NATIONAL WEATHER SERVICE GOODLAND KS
700 AM MDT FRI SEP 19 2014

...OFFICIAL OBSERVATIONS...

CITY           SKY/WX    TMP DP  RH WIND       PRES   REMARKS
GOODLAND KS    CLEAR     64  59  83 SW14      29.95R
HILL CITY KS   CLEAR     61  59  93 S6        29.93R
IMPERIAL NEB   CLEAR     59  55  87 S9        29.89R
MCCOOK NEB     CLEAR     53  53 100 SE3       29.90R FOG
AKRON CO       CLEAR     67  42  40 S12G22    29.95R
BURLINGTON CO  CLEAR     61  57  87 S12       29.97R
LIMON CO       CLEAR     48  46  93 CALM      30.02S
$$

...UNOFFICIAL OBSERVATIONS...

CITY           SKY/WX    TMP DP  RH WIND       PRES   REMARKS
GOVE KS          N/A     63  32  31 MISG        N/A
SHARON SPRINGS   N/A     60  58  95 SW8         N/A
TRIBUNE KS     CLEAR     61  61 100 S9        29.99R
WAKEENEY KS      N/A     63  58  85 MISG        N/A
TRENTON NEB      N/A     56  32  40 SW6         N/A
YUMA CO          N/A     57  52  83 SW8         N/A
$$



USA.gov is the U.S. government's official web portal to all federal, state and local government web resources and services.